Location: Most
(50.5133°N, 13.6207°E)
Time: 05:51:41
(UTC+01:00)

ISS - Pass Details

Date: 12 February 2018
Orbit: 402 x 407 km, 51.6° (Epoch: 23 February)

Event Time Altitude Azimuth Distance (km) Brightness Sun altitude
Rises 18:32:49 0° 282° (WNW) 2,320 1.6 -12.5°
Reaches altitude 10° 18:35:29 10° 258° (WSW) 1,457 0.5 -12.9°
Maximum altitude 18:37:30 15° 220° (SW) 1,173 -0.9 -13.2°
Drops below altitude 10° 18:39:30 10° 182° (S) 1,452 -0.9 -13.5°
Sets 18:42:09 0° 159° (SSE) 2,307 -0.2 -13.9°
